Hourly Data Report for October 11, 2016

CORAL HARBOUR A
NUNAVUT

64°11'36.000" N
83°21'34.000" W
62.20 m
2301002
71915
YZS

Download Data

Hourly Data (October 2016)
Hourly Data Report for October 11, 2016
TIME
LST
Temp Definition
°C
Dew Point Definition
°C
Rel Hum Definition
%
Precip. Amount Definition
mm

Wind Dir Definition
10's deg

Wind Spd Definition
km/h
Visibility Definition
km
Stn Press Definition
kPa
Hmdx Definition


Wind Chill Definition


Weather Definition


00:00 -8.3 -10.5 84   34 13 24.1 100.63   -14 LegendNANA
01:00 -8.4 -10.8 83   31 13 24.1 100.63   -14 Clear
02:00 -7.9 -9.7 87   31 9 24.1 100.65   -12 LegendNANA
03:00 -8.2 -10.1 86   36 13 24.1 100.65   -14 LegendNANA
04:00 -9.1 -10.7 88   35 14 24.1 100.65   -15 Clear
05:00 -9.7 -11.5 87   36 13 24.1 100.66   -16 LegendNANA
06:00 -9.8 -11.4 88   35 14 24.1 100.67   -16 LegendNANA
07:00 -8.5 -10.4 86   34 14 24.1 100.67   -15 Mostly Cloudy
08:00 -7.6 -9.7 85   26 5 24.1 100.68   -10 LegendNANA
09:00 -7.1 -10.0 80   36 1 24.1 100.69   -8 LegendNANA
10:00 -6.2 -10.1 74   3 5 24.1 100.67   -9 Cloudy
11:00 -5.4 -10.2 69   1 3 24.1 100.67   -7 LegendNANA
12:00 -4.7 -10.5 64   26 5 24.1 100.67   -7 LegendNANA
13:00 -4.0 -9.3 67   23 8 24.1 100.66   -7 Cloudy
14:00 -3.8 -9.3 66   19 8 22.5 100.66   -7 LegendNANA
15:00 -3.8 -8.3 71   16 8 24.1 100.67   -7 LegendNANA
16:00 -3.5 -7.7 73   16 9 24.1 100.66   -7 Cloudy
17:00 -3.5 -7.7 73   15 8 6.4 100.66   -7 Snow
18:00 -5.8 -6.5 95   15 7 12.9 100.67   -9 Snow
19:00 -6.8 -7.8 93   9 10 24.1 100.64   -11 Snow
20:00 -7.9 -8.7 94   8 7 24.1 100.61   -12 Snow
21:00 -7.5 -8.4 93   7 12 16.1 100.59   -13 Snow
22:00 -6.9 -7.9 93   7 13 12.9 100.59   -12 Snow
23:00 -5.1 -5.9 94   10 8 1.6 100.58   -9 Snow,Snow Grains

Notes on Data Quality.

Legend

  • E = Estimated
  • M = Missing
  • NA = Not Available*
  • [empty] = Indicates an unobserved value
Date modified: